Lancaster, PA

10:19 PM EST on December 09, 2016 (GMT -0500)
Lancaster

Weather History for KLNS - December, 2013

Change the Weather History Date:

Sunday, December 1, 2013

  Actual Average Record
Temperature  
Mean Temperature 32 °F -  
Max Temperature 39 °F 46 °F 71 °F (2006)
Min Temperature 24 °F 30 °F 14 °F (1976)
Degree Days  
Heating Degree Days 34    
Moisture  
Dew Point 25 °F    
Average Humidity 78    
Maximum Humidity 93    
Minimum Humidity 60    
Precipitation  
Precipitation 0.00 in - - ()
Sea Level Pressure  
Sea Level Pressure 30.20 in    
Wind  
Wind Speed 1 mph (WNW)    
Max Wind Speed 7 mph    
Max Gust Speed -    
Visibility 5 miles    
Events      
Averages and records for this station are not official NWS values.
T = Trace of Precipitation, MM = Missing Value Source: NWS Daily Summary

Daily Weather History Graph

Daily Weather History Graph

Search for Another Location

Airport or City:

Trip Planner

Search our weather history database for the weather conditions in past years. The results will help you decide how hot, cold, wet, or windy it might be!

Date:

Astronomy

Dec. 01, 2013 Rise Set
Actual Time 7:08 AM EST 4:40 PM EST
Civil Twilight 6:38 AM EST 5:10 PM EST
Nautical Twilight 6:04 AM EST 5:43 PM EST
Astronomical Twilight 5:31 AM EST 6:16 PM EST
Moon 5:23 AM EST (12/1) 3:48 PM EST (12/1)
Length of Visible Light 10h 31m
Length of Day
9h 31m
Waning Crescent, 2% of the Moon is Illuminated
Dec 1
Waning Crescent
Dec 2
New
Dec 9
First Quarter
Dec 17
Full
Dec 25
Last Quarter

Hourly Weather History & Observations

Time (EST) Temp. Windchill Dew Point Humidity Pressure Visibility Wind Dir Wind Speed Gust Speed Precip Events Conditions
12:01 AM 30.2 °F - 24.8 °F 80% 30.36 in 5.0 mi Calm Calm - N/A   Haze
12:53 AM 28.9 °F - 25.0 °F 85% 30.36 in 5.0 mi Calm Calm - N/A   Mostly Cloudy
1:53 AM 30.0 °F - 24.1 °F 79% 30.34 in 6.0 mi Calm Calm - N/A   Haze
2:53 AM 28.9 °F - 26.1 °F 89% 30.32 in 4.0 mi Calm Calm - N/A   Overcast
3:20 AM 28.4 °F - 24.8 °F 86% 30.29 in 5.0 mi Calm Calm - N/A   Haze
3:53 AM 28.0 °F - 25.0 °F 88% 30.29 in 5.0 mi Calm Calm - N/A   Clear
4:53 AM 28.0 °F - 24.1 °F 85% 30.27 in 5.0 mi Calm Calm - N/A   Clear
5:53 AM 26.1 °F - 23.0 °F 88% 30.26 in 4.0 mi Calm Calm - N/A   Clear
6:53 AM 26.1 °F - 23.0 °F 88% 30.25 in 4.0 mi Calm Calm - N/A   Clear
7:15 AM 24.8 °F - 21.2 °F 86% 30.24 in 2.0 mi Calm Calm - N/A   Clear
7:29 AM 24.8 °F - 23.0 °F 93% 30.24 in 1.8 mi Calm Calm - N/A   Clear
7:37 AM 24.8 °F - 23.0 °F 93% 30.23 in 2.0 mi Calm Calm - N/A   Clear
7:50 AM 24.8 °F - 21.2 °F 86% 30.23 in 1.5 mi Calm Calm - N/A   Clear
7:53 AM 24.1 °F - 21.9 °F 91% 30.25 in 1.8 mi Calm Calm - N/A   Clear
8:01 AM 24.8 °F - 23.0 °F 93% 30.23 in 2.0 mi Calm Calm - N/A   Clear
8:38 AM 28.4 °F - 26.6 °F 93% 30.23 in 1.8 mi Calm Calm - N/A   Clear
8:53 AM 30.0 °F - 27.0 °F 88% 30.24 in 2.0 mi Calm Calm - N/A   Clear
9:36 AM 33.8 °F - 28.4 °F 81% 30.22 in 3.0 mi Calm Calm - N/A   Haze
9:53 AM 34.0 °F - 28.9 °F 82% 30.23 in 3.0 mi Calm Calm - N/A   Haze
10:53 AM 37.0 °F - 25.0 °F 62% 30.21 in 8.0 mi Calm Calm - N/A   Clear
11:53 AM 37.9 °F 32.7 °F 26.1 °F 62% 30.17 in 8.0 mi WNW 6.9 mph - N/A   Mostly Cloudy
12:53 PM 37.9 °F 33.5 °F 25.0 °F 60% 30.14 in 8.0 mi NW 5.8 mph - N/A   Overcast
1:53 PM 37.9 °F 34.4 °F 26.1 °F 62% 30.12 in 8.0 mi WNW 4.6 mph - N/A   Overcast
2:53 PM 39.0 °F 36.8 °F 26.1 °F 60% 30.10 in 8.0 mi West 3.5 mph - N/A   Overcast
3:53 PM 37.9 °F 35.5 °F 26.1 °F 62% 30.10 in 7.0 mi NW 3.5 mph - N/A   Overcast
4:53 PM 37.0 °F - 25.0 °F 62% 30.09 in 7.0 mi Calm Calm - N/A   Overcast
5:53 PM 37.0 °F - 25.0 °F 62% 30.08 in 8.0 mi Calm Calm - N/A   Scattered Clouds
6:53 PM 34.0 °F - 27.0 °F 75% 30.09 in 8.0 mi Calm Calm - N/A   Scattered Clouds
7:53 PM 36.0 °F - 26.1 °F 67% 30.08 in 8.0 mi Calm Calm - N/A   Overcast
8:53 PM 34.0 °F - 27.0 °F 75% 30.06 in 7.0 mi Calm Calm - N/A   Overcast
9:53 PM 35.1 °F 32.2 °F 27.0 °F 72% 30.06 in 6.0 mi WNW 3.5 mph - N/A   Haze
10:53 PM 35.1 °F - 28.0 °F 76% 30.04 in 6.0 mi Calm Calm - N/A   Haze
11:53 PM 35.1 °F - 28.0 °F 76% 30.03 in 6.0 mi Calm Calm - N/A   Haze